TimeCST,TemperatureF,Dew PointF,Humidity,Sea Level PressureIn,VisibilityMPH,Wind Direction,Wind SpeedMPH,Gust SpeedMPH,PrecipitationIn,Events,Conditions,WindDirDegrees,DateUTC
12:15 AM,6.8,1.2,78,30.25,10.0,Calm,Calm,-,N/A,,Clear,0,2014-01-08 06:15:00
12:35 AM,6.3,1.6,81,30.25,10.0,Calm,Calm,-,N/A,,Clear,0,2014-01-08 06:35:00
12:55 AM,6.8,1.8,80,30.26,10.0,North,3.5,-,N/A,,Mostly Cloudy,360,2014-01-08 06:55:00
1:35 AM,7.5,1.9,78,30.27,10.0,Calm,Calm,-,N/A,,Overcast,0,2014-01-08 07:35:00
1:55 AM,7.7,2.3,79,30.28,10.0,Calm,Calm,-,N/A,,Overcast,0,2014-01-08 07:55:00
2:15 AM,8.2,2.5,77,30.28,10.0,Calm,Calm,-,N/A,,Overcast,0,2014-01-08 08:15:00
2:35 AM,8.4,3.0,79,30.28,10.0,Calm,Calm,-,N/A,,Overcast,0,2014-01-08 08:35:00
2:55 AM,8.2,2.3,77,30.29,10.0,Calm,Calm,-,N/A,,Mostly Cloudy,0,2014-01-08 08:55:00
3:15 AM,8.2,2.8,79,30.30,10.0,Calm,Calm,-,N/A,,Mostly Cloudy,0,2014-01-08 09:15:00
3:55 AM,9.5,4.1,79,30.30,10.0,North,3.5,-,N/A,,Overcast,10,2014-01-08 09:55:00
4:15 AM,9.9,4.1,78,30.31,10.0,North,3.5,-,N/A,,Overcast,10,2014-01-08 10:15:00
4:35 AM,10.2,4.1,76,30.31,10.0,Calm,Calm,-,N/A,,Overcast,0,2014-01-08 10:35:00
4:55 AM,10.4,3.9,75,30.31,10.0,North,5.8,-,N/A,,Overcast,350,2014-01-08 10:55:00
5:15 AM,10.4,4.6,78,30.31,10.0,North,9.2,-,N/A,,Overcast,10,2014-01-08 11:15:00
5:35 AM,9.3,2.3,73,30.31,10.0,North,6.9,-,N/A,,Mostly Cloudy,10,2014-01-08 11:35:00
5:55 AM,9.1,1.9,73,30.32,10.0,NNE,5.8,-,N/A,,Mostly Cloudy,20,2014-01-08 11:55:00
6:15 AM,9.0,1.9,73,30.33,10.0,NNE,6.9,-,N/A,,Scattered Clouds,30,2014-01-08 12:15:00
6:35 AM,8.6,-0.4,67,30.33,10.0,NNE,8.1,-,N/A,,Clear,30,2014-01-08 12:35:00
6:55 AM,8.4,0.3,70,30.34,10.0,NNE,4.6,-,N/A,,Clear,30,2014-01-08 12:55:00
7:15 AM,8.4,-0.2,68,30.34,10.0,NE,6.9,-,N/A,,Clear,40,2014-01-08 13:15:00
7:35 AM,8.2,-1.1,66,30.35,10.0,NE,5.8,-,N/A,,Clear,50,2014-01-08 13:35:00
7:41 AM,8.6,-0.4,67,30.35,10.0,NE,4.6,-,N/A,,Clear,50,2014-01-08 13:41:00
7:55 AM,8.2,-1.3,65,30.36,10.0,NE,4.6,-,N/A,,Clear,50,2014-01-08 13:55:00
8:15 AM,8.2,-1.3,65,30.37,10.0,NE,4.6,-,N/A,,Clear,40,2014-01-08 14:15:00
8:35 AM,8.4,-1.1,65,30.38,10.0,ENE,3.5,-,N/A,,Clear,60,2014-01-08 14:35:00
8:55 AM,8.6,-0.9,65,30.39,10.0,NE,5.8,-,N/A,,Scattered Clouds,40,2014-01-08 14:55:00
9:15 AM,9.0,-1.3,63,30.40,10.0,NE,6.9,-,N/A,,Scattered Clouds,50,2014-01-08 15:15:00
9:35 AM,9.0,-1.8,62,30.41,10.0,ENE,8.1,-,N/A,,Clear,60,2014-01-08 15:35:00
10:15 AM,10.0,-0.6,62,30.43,10.0,East,6.9,-,N/A,,Clear,80,2014-01-08 16:15:00
10:35 AM,10.2,-0.9,61,30.43,10.0,ENE,5.8,-,N/A,,Clear,70,2014-01-08 16:35:00
11:15 AM,10.8,-0.4,61,30.43,10.0,NE,6.9,-,N/A,,Mostly Cloudy,50,2014-01-08 17:15:00
11:35 AM,11.1,-0.0,61,30.43,10.0,NE,5.8,-,N/A,,Mostly Cloudy,50,2014-01-08 17:35:00
11:55 AM,11.5,-0.0,60,30.41,10.0,ENE,5.8,-,N/A,,Scattered Clouds,70,2014-01-08 17:55:00
12:15 PM,11.5,-0.2,59,30.41,10.0,ENE,5.8,-,N/A,,Clear,70,2014-01-08 18:15:00
12:35 PM,12.0,0.1,59,30.41,10.0,East,3.5,-,N/A,,Clear,90,2014-01-08 18:35:00
12:55 PM,11.8,-0.0,59,30.40,10.0,East,3.5,-,N/A,,Clear,90,2014-01-08 18:55:00
1:15 PM,12.4,0.3,59,30.40,10.0,Calm,Calm,-,N/A,,Clear,0,2014-01-08 19:15:00
1:35 PM,13.1,1.0,59,30.40,10.0,ENE,3.5,-,N/A,,Clear,60,2014-01-08 19:35:00
1:55 PM,14.2,1.6,57,30.40,10.0,ENE,5.8,-,N/A,,Clear,70,2014-01-08 19:55:00
2:15 PM,14.0,1.6,58,30.40,10.0,East,4.6,-,N/A,,Clear,80,2014-01-08 20:15:00
2:35 PM,14.5,2.1,58,30.40,10.0,East,4.6,-,N/A,,Clear,90,2014-01-08 20:35:00
2:55 PM,14.9,2.7,58,30.40,10.0,ENE,4.6,-,N/A,,Clear,70,2014-01-08 20:55:00
3:15 PM,15.6,2.3,56,30.40,10.0,Calm,Calm,-,N/A,,Clear,0,2014-01-08 21:15:00
3:35 PM,14.9,2.1,57,30.41,10.0,East,3.5,-,N/A,,Clear,100,2014-01-08 21:35:00
3:55 PM,14.7,2.3,58,30.41,10.0,ESE,6.9,-,N/A,,Clear,120,2014-01-08 21:55:00
4:15 PM,13.6,2.5,61,30.41,10.0,ESE,5.8,-,N/A,,Clear,110,2014-01-08 22:15:00
4:35 PM,13.5,2.8,63,30.41,10.0,ESE,5.8,-,N/A,,Clear,110,2014-01-08 22:35:00
4:55 PM,12.9,3.0,65,30.41,10.0,SE,5.8,-,N/A,,Clear,130,2014-01-08 22:55:00
5:15 PM,12.0,2.3,65,30.41,10.0,ESE,4.6,-,N/A,,Mostly Cloudy,120,2014-01-08 23:15:00
5:35 PM,10.4,2.3,70,30.41,10.0,ESE,4.6,-,N/A,,Scattered Clouds,120,2014-01-08 23:35:00
5:55 PM,10.0,2.1,70,30.42,7.0,East,4.6,-,N/A,,Clear,100,2014-01-08 23:55:00
6:15 PM,9.7,1.4,69,30.43,10.0,ESE,4.6,-,N/A,,Clear,110,2014-01-09 00:15:00
6:35 PM,8.8,1.2,71,30.43,7.0,ESE,4.6,-,N/A,,Clear,110,2014-01-09 00:35:00
6:55 PM,8.6,1.4,73,30.43,10.0,ESE,3.5,-,N/A,,Clear,120,2014-01-09 00:55:00
7:15 PM,7.2,0.5,74,30.43,10.0,ESE,4.6,-,N/A,,Clear,120,2014-01-09 01:15:00
7:35 PM,6.8,0.5,75,30.44,10.0,ESE,4.6,-,N/A,,Clear,120,2014-01-09 01:35:00
7:55 PM,6.4,-0.0,75,30.44,10.0,ESE,5.8,-,N/A,,Clear,120,2014-01-09 01:55:00
8:15 PM,5.9,-0.4,75,30.44,10.0,ESE,5.8,-,N/A,,Scattered Clouds,120,2014-01-09 02:15:00
8:35 PM,7.5,1.8,77,30.44,10.0,SE,4.6,-,N/A,,Mostly Cloudy,130,2014-01-09 02:35:00
8:55 PM,8.1,1.9,76,30.43,10.0,ESE,4.6,-,N/A,,Overcast,110,2014-01-09 02:55:00
9:15 PM,7.7,1.4,75,30.43,10.0,ESE,5.8,-,N/A,,Overcast,110,2014-01-09 03:15:00
9:35 PM,6.8,0.7,76,30.43,10.0,ESE,5.8,-,N/A,,Scattered Clouds,110,2014-01-09 03:35:00
9:55 PM,6.6,0.9,77,30.43,10.0,ESE,5.8,-,N/A,,Scattered Clouds,120,2014-01-09 03:55:00
10:15 PM,6.8,0.5,75,30.43,10.0,ESE,5.8,-,N/A,,Scattered Clouds,120,2014-01-09 04:15:00
10:35 PM,6.4,0.5,77,30.43,10.0,ESE,4.6,-,N/A,,Scattered Clouds,120,2014-01-09 04:35:00
10:55 PM,6.6,0.5,76,30.42,10.0,ESE,3.5,-,N/A,,Scattered Clouds,110,2014-01-09 04:55:00
11:15 PM,6.4,0.3,76,30.41,10.0,ESE,4.6,-,N/A,,Scattered Clouds,110,2014-01-09 05:15:00
11:35 PM,5.7,0.3,78,30.41,10.0,ESE,4.6,-,N/A,,Mostly Cloudy,110,2014-01-09 05:35:00
11:55 PM,5.9,0.9,80,30.41,10.0,ESE,4.6,-,N/A,,Overcast,120,2014-01-09 05:55:00